Погода в Терсе

Россия / Саратовская область     52°05′11″N   47°32′39″E
темп.,
°C
ветер,
м/с
пор.,
м/с
влажн.,
%
обл.,
%
осадки,
мм/ч
давл.,
гПа
погр.,
м
8 марта, пн
пн801:00−4юз91781100 0.1 1005918
04:00−3юз101793100 0.9 1003923
07:00−2юз81687100 0.3 1003844
10:00−1зюз7138894 0.3 1005925
13:000зюз599986 0.3 1005705
16:000юз9149493 1.6 1004977
19:00−1зюз6149098 0.1 1004874
22:00−4зюз5128696 0.3 1007295
9 марта, вт
вт901:00−9з348854 0.0 100965
04:00−12зсз238561 0.0 101022
07:00−12сз228695 0.0 101121
10:00−9ссв118498 0.0 1011111
13:00−7св1182100 0.0 1010336
16:00−6ссв1283100 0.0 1010418
19:00−9сз2389100 0.0 101021
22:00−11зсз358968 0.0 101288
10 марта, ср
ср1001:00−11сз599075 0.0 1012201
04:00−12сз5108986 0.0 1014268
07:00−17сз6118861 0.0 1015229
10:00−16сз6108830 0.0 1018343
13:00−13сз68830 0.0 1019622
16:00−13сз698134 0.0 1020841
19:00−16зсз51086100 0.0 1022271
22:00−20сз5108967 0.0 1024250
11 марта, чт
чт1101:00−24сз36900 0.0 1025112
04:00−25сз33890 0.0 102635
07:00−26сз33900 0.0 102826
10:00−21сз24860 0.0 1029238
13:00−17сз34790 0.0 1029433
16:00−15зсз45830 0.0 1029442
19:00−18з34900 0.0 102946
22:00−19зсз34910 0.0 103161
12 марта, пт
пт1201:00−18зсз239574 0.1 103257
04:00−19сз229373 0.1 103220
07:00−20сз22940 0.0 103320
10:00−15сз11890 0.0 1034132
13:00−12ююв118755 0.0 1034293
16:00−11ююз228978 0.0 1034261
19:00−15ююз229694 0.0 103420
22:00−17ююз129676 0.0 103520